Content
SEND FEEDBACK

Daily
Averages
Monthly
Summary
United States of America

EARTH CITY, MISSOURI


Home > North America > United States > Missouri
Elevation: 476 feet     Latitude: 38 46N     Longitude: 090 30W

WEATHER
 
SELECT A DAY
Number of Records: 203,542;   Date Range: 1/1/95 - 8/30/14
 
SHARE

PRINT THIS DATA

[ ← Previous Day ]
WEATHER ALMANAC - FEBRUARY 13, 2013
[ Next Day → ]
[ °C ]   °F
Weather ElementAverageHighLow
Temperature44.5 °F54 °F (1:51 pm)36 °F (6:51 am)
Dewpoint27.6 °F30.9 °F (9:51 pm)25 °F (1:51 pm)
Humidity54 %70 % (1:51 am)33 % (1:51 pm)
Barometer29.88 in29.95 in (1:51 am)29.82 in (2:51 pm)
Wind Speed8.6 mph18.4 mph (3:51 pm)
Wind Gust24.2 mph (2:51 pm)
Weather ElementAverage
Visibility10 mi
Wind DirectionWSW (245.9 °)

Weather ElementTotal
Precipitation---
Heating Degree Days20 (Base 65)
Averaged from 22 records on February 13, 2013
WEATHER CONDITIONS BREAKOUT
WIND DIRECTION BREAKOUT
WEATHER BY HOUR - FEBRUARY 13, 2013
[ °C ]   °F
Local TimeTemperatureDewpointHumidityBarometerVisibilityWind DirectionWind SpeedGust SpeedPrecipitationEventsConditions
1:51 AM37.9 °F28.9 °F70 %29.95 in10.0 miWest (280°)5.8 mphOvercast
2:51 AM37.9 °F28.9 °F70 %29.93 in10.0 miCalmOvercast
3:51 AM37.9 °F28.0 °F68 %29.91 in10.0 miWest (260°)4.6 mphOvercast
4:51 AM37.9 °F28.0 °F68 %29.90 in10.0 miWest (260°)4.6 mphOvercast
5:51 AM37.0 °F28.0 °F70 %29.90 in10.0 miWest (270°)3.5 mphOvercast
6:51 AM36.0 °F27.0 °F70 %29.91 in10.0 miWest (260°)3.5 mphOvercast
7:51 AM36.0 °F27.0 °F70 %29.92 in10.0 miWSW (250°)6.9 mphMostly Cloudy
8:51 AM39.9 °F28.0 °F63 %29.92 in10.0 miWSW (250°)9.2 mphScattered Clouds
9:51 AM45.0 °F28.0 °F52 %29.90 in10.0 miWSW (240°)9.2 mphPartly Cloudy
10:51 AM48.9 °F27.0 °F43 %29.89 in10.0 miWest (270°)5.8 mphClear
11:51 AM51.1 °F27.0 °F39 %29.88 in10.0 miWest (260°)10.4 mphClear
12:51 PM53.1 °F27.0 °F37 %29.85 in10.0 miWest (260°)12.7 mph20.7 mphPartly Cloudy
1:51 PM54.0 °F25.0 °F33 %29.83 in10.0 miWest (270°)13.8 mphPartly Cloudy
2:51 PM54.0 °F25.0 °F33 %29.82 in10.0 miWest (270°)13.8 mph24.2 mphScattered Clouds
3:51 PM54.0 °F25.0 °F33 %29.83 in10.0 miWest (270°)18.4 mphScattered Clouds
4:51 PM52.0 °F26.1 °F37 %29.84 in10.0 miWest (270°)13.8 mphScattered Clouds
5:51 PM48.9 °F27.0 °F43 %29.85 in10.0 miWest (270°)10.4 mphScattered Clouds
6:51 PM46.9 °F28.0 °F48 %29.86 in10.0 miWest (260°)6.9 mphPartly Cloudy
7:51 PM45.0 °F28.0 °F52 %29.87 in10.0 miWest (260°)4.6 mphClear
8:51 PM43.0 °F28.9 °F58 %29.88 in10.0 miSW (230°)11.5 mphClear
9:51 PM42.1 °F30.9 °F65 %29.88 in10.0 miSW (230°)10.4 mphClear
11:51 PM41.0 °F30.9 °F67 %29.86 in10.0 miSW (220°)9.2 mphClear
Hourly data recorded from KSTL, located miles away from Earth City, Missouri







STORIES FROM OUR PARTNERS